EW8138 Weather Reports


time (UTC)temp
C
wind
direction
speed
KPH
gust
KPH
rain 1hr
cm
rain 24hr
cm
rain mn
cm
humidity
%
barometer
mb
20260503010041 6 300 0.0 0.0 0.00 0.03 0.00 62 1017.0
20260503004541 6 300 0.0 0.0 0.00 0.03 0.00 61 1016.9
20260503003043 6 300 0.0 0.0 0.00 0.03 0.00 61 1016.8
20260503001540 6 300 0.0 0.0 0.00 0.03 0.00 60 1016.8
20260503000040 6 300 0.0 0.0 0.00 0.15 0.00 59 1016.7
20260502234556 7 306 0.0 0.0 0.00 0.15 0.00 60 1016.7
20260502233038 7 310 0.0 0.0 0.00 0.15 0.00 58 1016.6
20260502231538 7 311 0.0 0.0 0.00 0.15 0.00 57 1016.7
20260502230038 7 287 0.0 0.0 0.00 0.18 0.00 55 1016.7
20260502224537 7 311 0.0 0.0 0.00 0.18 0.00 58 1016.6
20260502223039 7 15 0.0 14.5 0.00 0.18 0.00 58 1016.6
20260502221535 7 300 0.0 0.0 0.00 0.18 0.00 65 1016.6
20260502220032 7 305 0.0 0.0 0.00 0.18 0.00 68 1016.5
20260502214531 6 14 0.0 0.0 0.00 0.18 0.00 69 1016.5
20260502213042 6 13 0.0 0.0 0.00 0.18 0.00 69 1016.4
20260502211534 6 13 0.0 0.0 0.00 0.18 0.00 68 1016.4
20260502210031 6 13 0.0 0.0 0.00 0.18 0.00 71 1016.4
20260502204529 6 13 0.0 0.0 0.00 0.18 0.00 71 1016.4
20260502203030 6 355 0.0 0.0 0.00 0.18 0.00 73 1016.4
20260502201536 6 71 0.0 0.0 0.00 0.18 0.00 72 1016.6
20260502200027 7 348 0.0 3.2 0.00 0.18 0.00 68 1016.6
20260502194525 7 57 0.0 0.0 0.00 0.18 0.00 68 1016.7
20260502193027 6 319 0.0 0.0 0.00 0.18 0.00 69 1016.9
20260502191528 6 337 0.0 0.0 0.00 0.18 0.00 71 1017.0
20260502190023 6 11 0.0 8.0 0.00 0.18 0.00 72 1017.1
20260502184523 6 90 0.0 1.6 0.00 0.18 0.00 73 1017.1
20260502183027 6 32 0.0 19.3 0.00 0.18 0.00 67 1017.1
20260502181523 7 37 0.0 3.2 0.00 0.18 0.00 61 1017.0
20260502163015 6 329 1.6 14.5 0.00 0.30 0.00 67 1017.5
20260502161512 6 313 0.0 1.6 0.00 0.30 0.00 65 1017.5
20260502151502 5 5 0.0 6.4 0.00 0.41 0.00 81 1017.5
20260502123041 2 313 0.0 1.6 0.00 0.81 0.00 86 1016.6
20260502121538 1 304 0.0 0.0 0.00 0.81 0.00 87 1016.5
20260502114533 0 311 0.0 0.0 0.00 0.84 0.00 88 1016.5
20260502113032 0 310 0.0 0.0 0.00 0.84 0.00 88 1016.5
20260502111526 0 298 0.0 0.0 0.00 0.84 0.00 88 1016.5
20260502110023 0 300 0.0 0.0 0.00 0.84 0.00 87 1016.3
20260502104526 0 295 0.0 0.0 0.00 0.84 0.00 87 1016.1
20260502103019 0 294 0.0 0.0 0.00 0.84 0.00 86 1016.1
20260502101519 0 294 0.0 0.0 0.00 0.84 0.00 86 1016.2
20260502091517 1 294 0.0 0.0 0.00 0.84 0.00 85 1016.1
20260502071501 2 291 0.0 0.0 0.00 0.84 0.00 86 1015.7
20260502070117 2 290 0.0 0.0 0.00 0.84 0.00 86 1015.8
20260502064601 2 290 0.0 0.0 0.00 0.84 0.00 86 1015.8
20260502063116 2 290 0.0 0.0 0.00 0.84 0.00 87 1015.8
20260502061554 2 290 0.0 0.0 0.00 0.84 0.00 87 1016.0
20260502060056 2 290 0.0 0.0 0.00 0.84 0.00 89 1016.1
20260502054601 3 263 0.0 0.0 0.00 0.84 0.00 91 1016.1
20260502053051 3 263 0.0 0.0 0.00 0.84 0.00 91 1016.0
20260502051548 3 263 0.0 0.0 0.00 0.84 0.00 92 1016.1
20260502050048 3 262 0.0 0.0 0.00 0.84 0.00 92 1016.0
20260502044543 4 262 0.0 0.0 0.00 0.84 0.00 91 1016.0
20260502043142 4 262 0.0 0.0 0.00 0.84 0.00 91 1016.0
20260502041604 4 263 0.0 0.0 0.00 0.84 0.00 91 1016.0
20260502040049 5 263 0.0 0.0 0.00 0.84 0.84 91 1016.0
20260502034539 5 263 0.0 0.0 0.00 0.84 0.84 92 1016.0
20260502033035 5 263 0.0 0.0 0.00 0.84 0.84 92 1016.1
20260502031535 5 262 0.0 0.0 0.00 0.84 0.84 92 1016.1
20260502030048 5 262 0.0 0.0 0.00 0.84 0.84 91 1016.0
20260502024531 5 263 0.0 0.0 0.00 0.84 0.84 90 1015.7
20260502023044 5 263 0.0 0.0 0.00 0.84 0.84 91 1015.6
20260502021528 5 263 0.0 0.0 0.00 0.84 0.84 91 1015.4
20260502020027 5 263 0.0 0.0 0.03 0.84 0.84 91 1015.3
20260502014530 5 263 0.0 0.0 0.03 0.84 0.84 91 1015.3
20260502013025 5 263 0.0 0.0 0.03 0.84 0.84 91 1015.1
20260502011523 5 251 0.0 0.0 0.03 0.84 0.84 91 1014.9